Погода в Балахте

Погода в Балахте : погода сейчас, прогноз погоды и архив. Всё, что Вы хотите узнать о погоде в Балахте!

Поиск расширенной информации на нашем сайте:

Другие новости

Новости СМИ2

Главная страница сайта

Новости сайта

02.10.2013

Напоминаем, что на нашем новом сайте вы можете получить высокодетализированные прогнозы погоды по пунктам России, СНГ и мира (включающие важные для авиации метеовеличины, такие как направление и скорость ветра, видимость, явления погоды, количество и форма облачности, нижняя и верхняя граница облачности), а также ознакомиться с разнообразными материалами по авиационной метеорологии и подборкой полезных ссылок на эту тему.

Сайт Метеоцентр.Азия посвящён разработке технологий оптимизации авиаметеорологического обслуживания, включая проектирование и перспективное создание нескольких автоматизированных авиаметеорологических систем:
- система выпуска высокодетальных прогностических карт явлений погоды для нижнего воздушного пространства по России и ближнему зарубежью;
- система верификации прогнозов TAF (выпускаемых синоптиками официальных АМСГ РФ и ближнего зарубежья) и AUTOTAF (выпускаемых сайтом Метеоцентр.Азия) - выявление ошибок, онлайн-сопоставление с фактической погодой METAR, автоматическое внесение коррективов в прогнозы при резком отклонении фактической погоды от прогноза, подсчёт оправдываемости прогнозов по элементам и в целом;
- система обработки, анализа и отображения авиаметеорологической информации для применения провайдерами метеорологической информации.


Погода в Балахте - сегодня

Время (UTC), дата Ветер
(°,м/с) 
Видим.   Явления Облачность Т
(°С)
Тd
(°С)
f(%) Тe
(°С)
Pmin
(гПа)
dP
(гПа)
Po
(мм)
O2
(г/м3)
Тmin Tmax R s Состояние
почвы
12 13.01.17 100 (В) 4000 м  дымка  6/0 средняя 
[Ac As]
-15.1 -17.1 85 -17  1029.4  1.7  740  317    -11.6       
15 13.01.17 080 (В) 2000 м  снег  10/10 1000 м 
[Ns]
-14.6 -16.6 85 -15  1028.8  -0.4  740  316           
18 13.01.17 110 (В) 4000 м  слаб. снег  10/0 верхняя 
[Cs]
-14.4 -16.4 85 -14  1029.8  0.9  740  316           
21 13.01.17 190 (Ю) 20000 м  в посл. час снег  10/0 верхняя 
[Cs]
-11.4 -15.8 70 -11  1029.5  0.2  740  313           
00 14.01.17 тихо ()   4000 м  слаб. снег  10/0 средняя 
[As op]
-12.4 -14.4 85 -12  1029.9  0.2  741  314  -15.7    0.2  27  равномерный
сухой снег
100% 
03 14.01.17 200 (Ю) 2000 м  снег  10/10 1000 м 
[Ns]
-11.6 -13.6 85 -14  1030.3  0.6  741  313           
06 14.01.17 220 (ЮЗ) 20000 м  {снег}  10/0 верхняя 
[Cs]
-11.2 -14 80 -11  1030.7  0.4  741  313           
09 14.01.17 тихо ()   20000 м    8/0 средняя, верхняя 
[Ac lent|Ci sp]
-11.6 -15.1 75 -12  1031.1  0.4  742  313           
12 14.01.17 040 (СВ) 20000 м    10/0 средняя 
[Ac As]
-13.4 -16.1 80 -13  1031.8  0.3  742  316    -10.6  0.9     
15 14.01.17 080 (В) 4000 м  слаб. снег  10/0 средняя 
[As op]
-13.1 -16.6 75 -13  1030.9  -0.8  741  315           
18 14.01.17 150 (ЮВ) 4000 м  слаб. снег  10/0 средняя 
[As op]
-12.3 -15 80 -12  1030.5  -0.3  741  314           
21 14.01.17 170 (Ю) 4000 м  слаб. снег  10/0 средняя 
[As op]
-12.6 -14.6 85 -13  1029.2  -1.2  740  314           
00 15.01.17 070 (В) 20000 м  в посл. час снег  9/0 средняя 
[As trans]
-14.4 -15.7 90 -14  1029.4  -0.1  740  316  -14.6    26  равномерный
сухой снег
100% 
03 15.01.17 260 (З) 4000 м  слаб. снег  10/0 средняя 
[As op]
-17.1 -19 85 -17  1031.2  1.2  741  320  -17.2         
06 15.01.17 280 (З) 4000 м  слаб. снег  10/0 верхняя 
[Cs]
-16.1 -18.8 80 -16  1032.3  1.2  742  319           
09 15.01.17 280 (З) 4000 м  слаб. снег  10/0 верхняя 
[Cs]
-16.5 -19.1 80 -17  1033.6  1.3  743  320           
12 15.01.17 300 (СЗ) 4000 м  слаб. снег  10/0 средняя 
[As trans]
-19.1 -21.7 80 -24  1037.9  3.6  746  325    -14.2     
15 15.01.17 320 (СЗ) 4000 м  слаб. снег  10/0 средняя 
[As trans]
-23.5 -26.8 74 -24  1040.8  2.1  747  331           
18 15.01.17 260 (З) 4000 м  слаб. снег  10/0 верхняя 
[Cs]
-26.8 -29.3 79 -27  1043  1.3  748  336           
21 15.01.17 090 (В) 20000 м  {снег}  10/0 верхняя 
[Cs]
-31.8 -34.1 80 -33  1044.8  0.9  749  343           
00 16.01.17 120 (ЮВ) 20000 м  {снег}  10/0 верхняя 
[Cs]
-35 -38 74 -39  1045.6  0.2  749  348  -35.1    0.2  27  равномерный
сухой снег
100% 
03 16.01.17 100 (В) 1000 м  дымка  ясно 
-37.1 -40.1 74 -41  1046.6  0.5  749  351  -37.7         
06 16.01.17 тихо ()   4000 м  дымка  4/0 верхняя 
[Ci sp]
-31.6 -34.5 76 -32  1044.3  -1.2  748  343           
09 16.01.17 тихо ()   20000 м    ясно 
-30 -33 75 -30  1044.1  0.1  749  341           
12 16.01.17 тихо ()   20000 м    ясно 
-32.7 -35.1 79 -33  1044.8  0.2  749  345    -29.4       
Время (UTC), дата Ветер
(°,м/с) 
Видим.   Явления Облачность Т
(°С)
Тd
(°С)
f(%) Тe
(°С)
Pmin
(гПа)
dP
(гПа)
Po
(мм)
O2
(г/м3)
Тmin Tmax R s Состояние
почвы

Для получения пояснительной информации подведите курсор к названию столбца.

ПОГОДА в Балахте - архив

Всё, что Вы хотите узнать о погоде в Балахте - удобно и подробно!

Выберите нужную дату (начиная с 1 января 2015* года) и нажмите кнопку "Найти".
Будут отображены архивные сводки погоды по пункту Балахта, начиная с указанной даты.


Отображать данные в формате CSV (для использования в таблицах Excel)


Внимание! Наш архив погоды предназначен исключительно для личного некоммерческого использования в познавательных целях. Если Вам необходимы официальные справки о состоянии погоды (для производственных, юридических, коммерческих и т.п. целей), обращайтесь в органы Росгидромета.

*Примечание: данная дата относится к архиву по метеостанциям СССР (Россия, СНГ, Балтия).
Архив по метеостанциям Зарубежной Европы и Азии (кроме Китая) хранится 10 дней, по другим регионам земного шара (Китай, Африка, Америка, Австралия, Океания) - 1 день.

Балахта - район местоположения метеостанции


Название, широта, долгота, высота метеостанции:
Балахта 55.4°ш. 91.7°д. 321 м над ур. моря [Российская Федерация]

Дополнительная информация

В oтличие oт бoльшинства пoгoдных сайтoв мы публикуем пoдрoбную метеoинфoрмацию в детальнoм прoфессиoнальнoм фoрмате.

Характеристики температуры и влажнoсти вoздуха измеряются на высoте 2 м в тени вдали oт зданий и деревьев.
Скoрoсть ветра измеряется на высoте 10 м (на урoвне рoста челoвека скoрoсть ветра ниже в 1.5-2 раза). Если метеoстанция нахoдится в гoрoде или в лесу, тo скoрoсть ветра занижена на 2-4 м/с пo сравнению с oткрытым местoм. Скoрoсть ветра над акватoриями крупных рек и oзёр, а также на вершинах хoлмoв на 2-5 м/с выше, чем в oбычных услoвиях.
Атмoсфернoе давление в разных тoчках местнoсти мoжет значительнo oтличаться oт давления на метеoстанции, в зависимoсти oт услoвий рельефа (при пoдъёме на 10 м давление пoнижается примернo на 1 мм рт.ст.).